When you browse on this site, cookies collect data to enhance your experience and personalize the content and advertising you see.
Visit our Privacy Policy to learn more. By continuing to use the site, you agree to this use of cookies and data.
  • In Portugal
  • List of Countries
  • For 7 days
  • Water Temperature
  • Satellite Maps
  • Weather Map
  • Weather Widgets
  • user-avatar
    Login

    Hourly Weather Siva

    Today, 22 March, Friday

    Time Temperature Precipitation Wind Pressure Humidity
    00:00 +22°C° 0 mm 8 mps 756 mmHg 28%
    01:00 +22°C° 0 mm 7 mps 756 mmHg 30%
    02:00 +21°C° 0 mm 7 mps 756 mmHg 33%
    03:00 +20°C° 0 mm 7 mps 756 mmHg 37%
    04:00 +18°C° 0 mm 7 mps 756 mmHg 41%
    05:00 +18°C° 0 mm 7 mps 756 mmHg 45%
    06:00 +18°C° 0 mm 7 mps 756 mmHg 46%
    07:00 +18°C° 0 mm 8 mps 756 mmHg 47%
    08:00 +18°C° 0 mm 8 mps 756 mmHg 49%
    09:00 +21°C° 0 mm 8 mps 756 mmHg 44%
    10:00 +22°C° 0 mm 8 mps 756 mmHg 39%
    11:00 +24°C° 0 mm 8 mps 756 mmHg 34%
    12:00 +26°C° 0 mm 8 mps 756 mmHg 31%
    13:00 +27°C° 0 mm 8 mps 755 mmHg 28%
    14:00 +29°C° 0 mm 8 mps 755 mmHg 25%
    15:00 +28°C° 0 mm 8 mps 755 mmHg 25%
    16:00 +28°C° 0 mm 8 mps 754 mmHg 25%
    17:00 +28°C° 0 mm 8 mps 754 mmHg 26%
    18:00 +27°C° 0.2 mm 8 mps 754 mmHg 27%
    19:00 +26°C° 0.2 mm 8 mps 754 mmHg 29%
    20:00 +26°C° 0.2 mm 8 mps 754 mmHg 31%
    21:00 +24°C° 0 mm 8 mps 754 mmHg 30%
    22:00 +24°C° 0 mm 8 mps 754 mmHg 30%
    23:00 +24°C° 0 mm 8 mps 754 mmHg 30%

    Tomorrow, 23 March, Saturday

    Time Temperature Precipitation Wind Pressure Humidity
    00:00 +23°C° 0.3 mm 7 mps 754 mmHg 33%
    01:00 +22°C° 0.3 mm 7 mps 754 mmHg 35%
    02:00 +21°C° 0.3 mm 7 mps 754 mmHg 38%
    03:00 +21°C° 0.2 mm 7 mps 754 mmHg 40%
    04:00 +21°C° 0.2 mm 7 mps 754 mmHg 42%
    05:00 +20°C° 0.2 mm 7 mps 753 mmHg 44%
    06:00 +21°C° 0 mm 7 mps 753 mmHg 44%
    07:00 +21°C° 0 mm 7 mps 753 mmHg 43%
    08:00 +21°C° 0 mm 7 mps 753 mmHg 42%
    09:00 +22°C° 0 mm 8 mps 753 mmHg 40%
    10:00 +24°C° 0 mm 8 mps 753 mmHg 37%
    11:00 +26°C° 0 mm 8 mps 753 mmHg 34%
    12:00 +27°C° 0 mm 7 mps 753 mmHg 32%
    13:00 +28°C° 0 mm 7 mps 752 mmHg 31%
    14:00 +29°C° 0 mm 7 mps 752 mmHg 29%
    15:00 +29°C° 0 mm 7 mps 751 mmHg 29%
    16:00 +29°C° 0 mm 7 mps 751 mmHg 29%
    17:00 +29°C° 0 mm 7 mps 751 mmHg 30%
    18:00 +28°C° 0 mm 7 mps 751 mmHg 32%
    19:00 +27°C° 0 mm 7 mps 751 mmHg 34%
    20:00 +26°C° 0 mm 7 mps 751 mmHg 37%
    21:00 +24°C° 0 mm 6 mps 752 mmHg 37%
    22:00 +23°C° 0 mm 6 mps 752 mmHg 37%
    23:00 +23°C° 0 mm 5 mps 752 mmHg 37%

    Day after tomorrow, 24 March, Sunday

    Time Temperature Precipitation Wind Pressure Humidity
    00:00 +22°C° 0 mm 4 mps 752 mmHg 38%
    01:00 +22°C° 0 mm 4 mps 752 mmHg 39%
    02:00 +21°C° 0 mm 4 mps 752 mmHg 39%
    03:00 +21°C° 0 mm 4 mps 752 mmHg 42%
    04:00 +21°C° 0 mm 4 mps 752 mmHg 45%
    05:00 +20°C° 0 mm 5 mps 753 mmHg 48%
    06:00 +20°C° 0 mm 5 mps 753 mmHg 51%
    07:00 +19°C° 0 mm 5 mps 753 mmHg 54%
    08:00 +19°C° 0 mm 5 mps 754 mmHg 58%
    09:00 +19°C° 0 mm 5 mps 754 mmHg 55%
    10:00 +20°C° 0 mm 4 mps 754 mmHg 52%
    11:00 +21°C° 0 mm 4 mps 754 mmHg 49%
    12:00 +21°C° 0 mm 3 mps 754 mmHg 46%
    13:00 +22°C° 0 mm 3 mps 753 mmHg 43%
    14:00 +24°C° 0 mm 2 mps 753 mmHg 41%
    15:00 +23°C° 0 mm 4 mps 753 mmHg 41%
    16:00 +23°C° 0 mm 6 mps 753 mmHg 41%
    17:00 +22°C° 0 mm 7 mps 752 mmHg 41%
    18:00 +22°C° 0 mm 7 mps 753 mmHg 42%
    19:00 +21°C° 0 mm 7 mps 754 mmHg 44%
    20:00 +20°C° 0 mm 8 mps 754 mmHg 45%
    21:00 +18°C° 0 mm 7 mps 755 mmHg 46%
    22:00 +19°C° 0 mm 6 mps 755 mmHg 47%
    23:00 +17°C° 0 mm 5 mps 755 mmHg 48%

    25 March, Monday

    Time Temperature Precipitation Wind Pressure Humidity
    00:00 +17°C° 0 mm 5 mps 755 mmHg 49%
    01:00 +17°C° 0 mm 5 mps 755 mmHg 51%
    02:00 +16°C° 0 mm 5 mps 755 mmHg 52%
    03:00 +16°C° 0 mm 5 mps 755 mmHg 52%
    04:00 +15°C° 0 mm 5 mps 755 mmHg 52%
    05:00 +14°C° 0 mm 5 mps 755 mmHg 51%
    06:00 +14°C° 0 mm 5 mps 756 mmHg 52%
    07:00 +14°C° 0 mm 5 mps 756 mmHg 52%
    08:00 +14°C° 0 mm 5 mps 757 mmHg 52%
    09:00 +15°C° 0 mm 5 mps 757 mmHg 46%
    10:00 +16°C° 0 mm 6 mps 757 mmHg 40%
    11:00 +19°C° 0 mm 6 mps 757 mmHg 34%
    12:00 +19°C° 0 mm 6 mps 757 mmHg 30%
    13:00 +20°C° 0 mm 6 mps 756 mmHg 27%
    14:00 +21°C° 0 mm 6 mps 756 mmHg 24%
    15:00 +21°C° 0 mm 6 mps 756 mmHg 23%
    16:00 +21°C° 0 mm 6 mps 755 mmHg 22%
    17:00 +21°C° 0 mm 6 mps 755 mmHg 21%
    18:00 +21°C° 0 mm 5 mps 756 mmHg 24%
    19:00 +20°C° 0 mm 4 mps 756 mmHg 26%
    20:00 +20°C° 0 mm 3 mps 756 mmHg 28%
    21:00 +19°C° 0 mm 4 mps 757 mmHg 31%
    22:00 +19°C° 0 mm 5 mps 757 mmHg 34%
    23:00 +17°C° 0 mm 5 mps 757 mmHg 38%

    26 March, Tuesday

    Time Temperature Precipitation Wind Pressure Humidity
    00:00 +17°C° 0 mm 5 mps 757 mmHg 41%
    01:00 +17°C° 0 mm 4 mps 757 mmHg 44%
    02:00 +15°C° 0 mm 4 mps 756 mmHg 47%
    03:00 +15°C° 0 mm 4 mps 756 mmHg 53%
    04:00 +14°C° 0 mm 4 mps 756 mmHg 58%
    05:00 +13°C° 0 mm 4 mps 756 mmHg 63%
    06:00 +14°C° 0 mm 5 mps 757 mmHg 64%
    07:00 +14°C° 0 mm 5 mps 757 mmHg 65%
    08:00 +14°C° 0 mm 5 mps 757 mmHg 66%
    09:00 +15°C° 0 mm 6 mps 758 mmHg 58%
    10:00 +17°C° 0 mm 6 mps 758 mmHg 50%
    11:00 +19°C° 0 mm 6 mps 758 mmHg 42%
    12:00 +20°C° 0 mm 6 mps 757 mmHg 37%
    13:00 +22°C° 0 mm 7 mps 757 mmHg 32%
    14:00 +23°C° 0 mm 7 mps 756 mmHg 27%
    15:00 +23°C° 0 mm 7 mps 756 mmHg 26%
    16:00 +23°C° 0 mm 7 mps 756 mmHg 25%
    17:00 +23°C° 0 mm 6 mps 756 mmHg 24%
    18:00 +22°C° 0 mm 5 mps 756 mmHg 25%
    19:00 +22°C° 0 mm 4 mps 757 mmHg 26%
    20:00 +21°C° 0 mm 3 mps 757 mmHg 27%
    21:00 +21°C° 0 mm 4 mps 757 mmHg 29%
    22:00 +20°C° 0 mm 4 mps 757 mmHg 31%
    23:00 +20°C° 0 mm 4 mps 757 mmHg 32%

    27 March, Wednesday

    Time Temperature Precipitation Wind Pressure Humidity
    00:00 +19°C° 0 mm 5 mps 758 mmHg 35%
    01:00 +19°C° 0 mm 6 mps 758 mmHg 37%
    02:00 +18°C° 0 mm 7 mps 758 mmHg 39%
    03:00 +17°C° 0 mm 6 mps 758 mmHg 42%
    04:00 +16°C° 0 mm 6 mps 758 mmHg 45%
    05:00 +16°C° 0 mm 5 mps 758 mmHg 48%
    06:00 +16°C° 0 mm 5 mps 758 mmHg 50%
    07:00 +16°C° 0 mm 5 mps 758 mmHg 51%
    08:00 +15°C° 0 mm 5 mps 758 mmHg 53%
    09:00 +17°C° 0 mm 5 mps 759 mmHg 48%
    10:00 +19°C° 0 mm 6 mps 759 mmHg 42%
    11:00 +20°C° 0 mm 6 mps 759 mmHg 37%
    12:00 +21°C° 0 mm 7 mps 759 mmHg 35%
    13:00 +22°C° 0 mm 7 mps 758 mmHg 32%
    14:00 +23°C° 0 mm 8 mps 758 mmHg 29%
    15:00 +23°C° 0 mm 8 mps 757 mmHg 30%
    16:00 +23°C° 0 mm 8 mps 757 mmHg 30%
    17:00 +23°C° 0 mm 9 mps 757 mmHg 31%
    18:00 +22°C° 0 mm 8 mps 758 mmHg 31%
    19:00 +21°C° 0 mm 8 mps 758 mmHg 31%
    20:00 +21°C° 0 mm 8 mps 758 mmHg 31%
    21:00 +18°C° 0 mm 8 mps 759 mmHg 30%
    22:00 +17°C° 0 mm 9 mps 759 mmHg 30%
    23:00 +16°C° 0 mm 10 mps 760 mmHg 29%
    Show more